Time,TemperatureF,DewpointF,PressureIn,WindDirection,WindDirectionDegrees,WindSpeedMPH,WindSpeedGustMPH,Humidity,HourlyPrecipIn,Conditions,Clouds,dailyrainin,SoftwareType,DateUTC
2013-08-30 00:01:00,69.6,65.7,30.09,SE,126,2.0,4.0,87,0.00,,,0.00,meteobridge,2013-08-30 04:01:00,
2013-08-30 00:02:00,69.6,65.7,30.09,SE,137,4.0,4.0,87,0.00,,,0.00,meteobridge,2013-08-30 04:02:00,
2013-08-30 00:06:00,69.6,65.7,30.09,South,175,0.0,2.0,87,0.00,,,0.00,meteobridge,2013-08-30 04:06:00,
2013-08-30 00:11:00,69.6,65.7,30.09,SE,144,0.9,2.0,87,0.00,,,0.00,meteobridge,2013-08-30 04:11:00,
2013-08-30 00:16:00,69.6,65.7,30.09,SSE,160,0.0,2.0,87,0.00,,,0.00,meteobridge,2013-08-30 04:16:00,
2013-08-30 00:21:00,69.6,65.7,30.09,ESE,121,0.0,2.9,87,0.00,,,0.00,meteobridge,2013-08-30 04:21:00,
2013-08-30 00:26:00,69.6,65.7,30.09,NNE,15,0.0,0.0,87,0.00,,,0.00,meteobridge,2013-08-30 04:26:00,
2013-08-30 00:31:00,69.6,65.7,30.09,SE,126,0.9,2.0,87,0.00,,,0.00,meteobridge,2013-08-30 04:31:00,
2013-08-30 00:36:00,69.6,65.7,30.09,East,99,0.9,0.9,87,0.00,,,0.00,meteobridge,2013-08-30 04:36:00,
2013-08-30 00:42:00,69.6,65.7,30.09,East,96,0.0,2.0,87,0.00,,,0.00,meteobridge,2013-08-30 04:42:00,
2013-08-30 00:47:00,69.6,65.7,30.09,East,101,0.0,4.0,87,0.00,,,0.00,meteobridge,2013-08-30 04:47:00,
2013-08-30 00:52:00,69.6,65.7,30.09,ENE,60,0.9,2.9,87,0.00,,,0.00,meteobridge,2013-08-30 04:52:00,
2013-08-30 00:57:00,69.6,65.7,30.09,SE,134,0.0,2.0,87,0.00,,,0.00,meteobridge,2013-08-30 04:57:00,
2013-08-30 01:02:00,69.6,65.7,30.09,East,82,0.0,2.0,87,0.00,,,0.00,meteobridge,2013-08-30 05:02:00,
2013-08-30 01:07:00,69.6,65.7,30.09,East,89,0.0,0.9,87,0.00,,,0.00,meteobridge,2013-08-30 05:07:00,
2013-08-30 01:12:00,69.6,65.7,30.09,SE,146,0.9,4.9,87,0.00,,,0.00,meteobridge,2013-08-30 05:12:00,
2013-08-30 01:18:00,69.6,65.7,30.09,SE,146,0.0,0.0,87,0.00,,,0.00,meteobridge,2013-08-30 05:18:00,
2013-08-30 01:23:00,69.4,65.5,30.08,SSE,152,0.9,2.0,87,0.00,,,0.00,meteobridge,2013-08-30 05:23:00,
2013-08-30 01:28:00,69.6,65.7,30.08,SSE,152,0.0,2.0,87,0.00,,,0.00,meteobridge,2013-08-30 05:28:00,
2013-08-30 01:33:00,69.4,65.5,30.08,SSE,150,0.0,0.0,87,0.00,,,0.00,meteobridge,2013-08-30 05:33:00,
2013-08-30 01:38:00,69.4,65.5,30.08,SSE,150,0.0,0.0,87,0.00,,,0.00,meteobridge,2013-08-30 05:38:00,
2013-08-30 01:43:00,69.4,65.5,30.08,SSE,150,0.0,0.0,87,0.00,,,0.00,meteobridge,2013-08-30 05:43:00,
2013-08-30 01:48:00,69.4,65.7,30.08,SSE,150,0.0,0.0,88,0.00,,,0.00,meteobridge,2013-08-30 05:48:00,
2013-08-30 01:53:00,69.4,65.7,30.08,SSE,150,0.0,0.0,88,0.00,,,0.00,meteobridge,2013-08-30 05:53:00,
2013-08-30 01:58:00,69.4,65.7,30.08,SSE,150,0.0,2.0,88,0.00,,,0.00,meteobridge,2013-08-30 05:58:00,
2013-08-30 02:04:00,69.4,65.7,30.07,SSE,150,0.0,2.0,88,0.00,,,0.00,meteobridge,2013-08-30 06:04:00,
2013-08-30 02:09:00,69.3,65.5,30.07,SSE,150,0.0,2.0,88,0.00,,,0.00,meteobridge,2013-08-30 06:09:00,
2013-08-30 02:14:00,69.3,65.8,30.07,SE,139,0.0,0.9,89,0.00,,,0.00,meteobridge,2013-08-30 06:14:00,
2013-08-30 02:19:00,69.3,65.8,30.07,SE,138,0.0,0.9,89,0.00,,,0.00,meteobridge,2013-08-30 06:19:00,
2013-08-30 02:24:00,69.3,65.8,30.07,SE,141,0.0,0.0,89,0.00,,,0.00,meteobridge,2013-08-30 06:24:00,
2013-08-30 02:30:00,69.3,65.8,30.07,SE,141,0.0,0.0,89,0.00,,,0.00,meteobridge,2013-08-30 06:30:00,
2013-08-30 02:35:00,69.3,65.8,30.07,SE,138,0.0,0.9,89,0.00,,,0.00,meteobridge,2013-08-30 06:35:00,
2013-08-30 02:40:00,69.3,65.8,30.07,SE,138,0.0,0.9,89,0.00,,,0.00,meteobridge,2013-08-30 06:40:00,
2013-08-30 02:45:00,69.3,65.8,30.07,SE,138,0.0,0.0,89,0.00,,,0.00,meteobridge,2013-08-30 06:45:00,
2013-08-30 02:50:00,69.3,66.2,30.07,SE,138,0.0,0.0,90,0.00,,,0.00,meteobridge,2013-08-30 06:50:00,
2013-08-30 02:55:00,69.1,66.0,30.07,SE,138,0.0,0.0,90,0.00,,,0.00,meteobridge,2013-08-30 06:55:00,
2013-08-30 03:01:00,69.1,66.0,30.06,SE,138,0.0,0.0,90,0.00,,,0.00,meteobridge,2013-08-30 07:01:00,
2013-08-30 03:06:00,69.1,66.0,30.06,SE,138,0.9,2.0,90,0.00,,,0.00,meteobridge,2013-08-30 07:06:00,
2013-08-30 03:11:00,69.1,66.0,30.06,SE,138,0.0,0.0,90,0.00,,,0.00,meteobridge,2013-08-30 07:11:00,
2013-08-30 03:17:00,69.1,65.7,30.07,SE,138,0.0,0.9,89,0.00,,,0.00,meteobridge,2013-08-30 07:17:00,
2013-08-30 03:22:00,69.1,66.0,30.06,SE,138,0.0,0.0,90,0.00,,,0.00,meteobridge,2013-08-30 07:22:00,
2013-08-30 03:27:00,69.1,66.0,30.06,SE,138,0.0,0.0,90,0.00,,,0.00,meteobridge,2013-08-30 07:27:00,
2013-08-30 03:32:00,69.1,66.0,30.06,SE,138,0.0,0.0,90,0.00,,,0.00,meteobridge,2013-08-30 07:32:00,
2013-08-30 03:37:00,69.1,66.0,30.06,SE,138,0.0,2.0,90,0.00,,,0.00,meteobridge,2013-08-30 07:37:00,
2013-08-30 03:42:00,69.1,66.0,30.06,SE,138,0.0,0.0,90,0.00,,,0.00,meteobridge,2013-08-30 07:42:00,
2013-08-30 03:47:00,69.1,66.0,30.06,SE,138,0.0,2.0,90,0.00,,,0.00,meteobridge,2013-08-30 07:47:00,
2013-08-30 03:52:00,68.9,65.5,30.07,SE,138,0.0,0.0,89,0.00,,,0.00,meteobridge,2013-08-30 07:52:00,
2013-08-30 03:58:00,68.9,65.5,30.07,SE,138,0.0,0.0,89,0.00,,,0.00,meteobridge,2013-08-30 07:58:00,
2013-08-30 04:03:00,68.9,65.8,30.07,SE,138,0.0,0.0,90,0.00,,,0.00,meteobridge,2013-08-30 08:03:00,
2013-08-30 04:08:00,69.1,65.7,30.07,SE,138,0.0,0.0,89,0.00,,,0.00,meteobridge,2013-08-30 08:08:00,
2013-08-30 04:13:00,69.1,66.0,30.07,SE,138,0.0,0.0,90,0.00,,,0.00,meteobridge,2013-08-30 08:13:00,
2013-08-30 04:18:00,68.9,65.8,30.06,SE,138,0.0,0.0,90,0.00,,,0.00,meteobridge,2013-08-30 08:18:00,
2013-08-30 04:24:00,68.9,65.5,30.06,SE,138,0.0,0.0,89,0.00,,,0.00,meteobridge,2013-08-30 08:24:00,
2013-08-30 04:29:00,68.9,65.8,30.06,SE,138,0.0,0.0,90,0.00,,,0.00,meteobridge,2013-08-30 08:29:00,
2013-08-30 04:34:00,68.7,65.3,30.06,SE,138,0.0,0.0,89,0.00,,,0.00,meteobridge,2013-08-30 08:34:00,
2013-08-30 04:39:00,68.7,65.7,30.06,SE,138,0.0,0.0,90,0.00,,,0.00,meteobridge,2013-08-30 08:39:00,
2013-08-30 04:44:00,68.7,65.7,30.06,SE,138,0.0,0.0,90,0.00,,,0.00,meteobridge,2013-08-30 08:44:00,
2013-08-30 04:49:00,68.7,65.7,30.06,SE,138,0.0,0.0,90,0.00,,,0.00,meteobridge,2013-08-30 08:49:00,
2013-08-30 04:54:00,68.7,65.7,30.06,SE,138,0.0,0.0,90,0.00,,,0.00,meteobridge,2013-08-30 08:54:00,
2013-08-30 05:00:00,68.7,65.7,30.06,SE,138,0.0,0.0,90,0.00,,,0.00,meteobridge,2013-08-30 09:00:00,
2013-08-30 05:05:00,68.7,65.7,30.06,SE,138,0.0,0.0,90,0.00,,,0.00,meteobridge,2013-08-30 09:05:00,
2013-08-30 05:10:00,68.7,65.7,30.06,SE,138,0.0,0.0,90,0.00,,,0.00,meteobridge,2013-08-30 09:10:00,
2013-08-30 05:15:00,68.7,65.7,30.06,SE,138,0.0,0.0,90,0.00,,,0.00,meteobridge,2013-08-30 09:15:00,
2013-08-30 05:20:00,68.7,65.7,30.06,SE,138,0.0,0.0,90,0.00,,,0.00,meteobridge,2013-08-30 09:20:00,
2013-08-30 05:25:00,68.7,65.7,30.06,SE,138,0.0,0.0,90,0.00,,,0.00,meteobridge,2013-08-30 09:25:00,
2013-08-30 05:31:00,68.7,65.7,30.06,SE,138,0.0,0.0,90,0.00,,,0.00,meteobridge,2013-08-30 09:31:00,
2013-08-30 05:36:00,68.7,65.7,30.06,SE,138,0.0,0.0,90,0.00,,,0.00,meteobridge,2013-08-30 09:36:00,
2013-08-30 05:41:00,68.7,65.7,30.07,SE,138,0.0,0.0,90,0.00,,,0.00,meteobridge,2013-08-30 09:41:00,
2013-08-30 05:46:00,68.7,66.0,30.07,SE,138,0.0,0.0,91,0.00,,,0.00,meteobridge,2013-08-30 09:46:00,
2013-08-30 05:51:00,68.7,66.0,30.07,SE,138,0.0,0.0,91,0.00,,,0.00,meteobridge,2013-08-30 09:51:00,
2013-08-30 05:56:00,68.7,66.0,30.07,SE,138,0.0,0.0,91,0.00,,,0.00,meteobridge,2013-08-30 09:56:00,
2013-08-30 06:02:00,68.7,66.0,30.07,SE,138,0.0,0.0,91,0.00,,,0.00,meteobridge,2013-08-30 10:02:00,
2013-08-30 06:07:00,68.7,66.0,30.07,SE,138,0.0,0.0,91,0.00,,,0.00,meteobridge,2013-08-30 10:07:00,
2013-08-30 06:12:00,68.5,65.8,30.07,SE,138,0.0,0.0,91,0.00,,,0.00,meteobridge,2013-08-30 10:12:00,
2013-08-30 06:17:00,68.5,65.8,30.07,SE,138,0.0,0.0,91,0.00,,,0.00,meteobridge,2013-08-30 10:17:00,
2013-08-30 06:23:00,68.5,65.5,30.07,SE,138,0.0,0.0,90,0.00,,,0.00,meteobridge,2013-08-30 10:23:00,
2013-08-30 06:28:00,68.5,65.8,30.07,SE,138,0.0,0.0,91,0.00,,,0.00,meteobridge,2013-08-30 10:28:00,
2013-08-30 06:33:00,68.5,65.8,30.08,SE,138,0.0,2.0,91,0.00,,,0.00,meteobridge,2013-08-30 10:33:00,
2013-08-30 06:38:00,68.5,65.5,30.08,SE,138,0.0,0.0,90,0.00,,,0.00,meteobridge,2013-08-30 10:38:00,
2013-08-30 06:43:00,68.5,65.5,30.08,SE,138,0.9,0.9,90,0.00,,,0.00,meteobridge,2013-08-30 10:43:00,
2013-08-30 06:49:00,68.5,65.5,30.08,SE,138,0.0,0.0,90,0.00,,,0.00,meteobridge,2013-08-30 10:49:00,
2013-08-30 06:54:00,68.5,65.5,30.08,SE,138,0.0,0.0,90,0.00,,,0.00,meteobridge,2013-08-30 10:54:00,
2013-08-30 06:59:00,68.5,65.5,30.08,SE,138,0.0,0.0,90,0.00,,,0.00,meteobridge,2013-08-30 10:59:00,
2013-08-30 07:04:00,68.5,65.8,30.08,SE,138,0.0,4.0,91,0.00,,,0.00,meteobridge,2013-08-30 11:04:00,
2013-08-30 07:09:00,68.5,65.5,30.08,SE,138,0.0,0.0,90,0.00,,,0.00,meteobridge,2013-08-30 11:09:00,
2013-08-30 07:14:00,68.7,66.0,30.08,SSW,205,0.0,0.0,91,0.00,,,0.00,meteobridge,2013-08-30 11:14:00,
2013-08-30 07:20:00,68.7,66.0,30.08,SSW,205,0.0,0.9,91,0.00,,,0.00,meteobridge,2013-08-30 11:20:00,
2013-08-30 07:25:00,68.7,66.0,30.08,SSW,205,2.0,2.0,91,0.00,,,0.00,meteobridge,2013-08-30 11:25:00,
2013-08-30 07:30:00,68.7,66.0,30.09,SSW,205,0.9,2.0,91,0.00,,,0.00,meteobridge,2013-08-30 11:30:00,
2013-08-30 07:35:00,68.9,66.2,30.08,SSW,205,0.0,2.0,91,0.00,,,0.00,meteobridge,2013-08-30 11:35:00,
2013-08-30 07:40:00,69.1,66.4,30.08,WSW,252,2.9,2.9,91,0.00,,,0.00,meteobridge,2013-08-30 11:40:00,
2013-08-30 07:45:00,69.1,66.4,30.09,WSW,252,0.0,0.0,91,0.00,,,0.00,meteobridge,2013-08-30 11:45:00,
2013-08-30 07:50:00,69.1,66.4,30.08,WSW,252,2.0,2.9,91,0.00,,,0.00,meteobridge,2013-08-30 11:50:00,
2013-08-30 07:55:00,69.3,66.6,30.08,WSW,242,2.0,4.0,91,0.00,,,0.00,meteobridge,2013-08-30 11:55:00,
2013-08-30 08:00:00,69.3,66.6,30.08,South,171,0.9,2.0,91,0.00,,,0.00,meteobridge,2013-08-30 12:00:00,
2013-08-30 08:05:00,69.4,66.4,30.08,South,176,0.0,2.0,90,0.00,,,0.00,meteobridge,2013-08-30 12:05:00,
2013-08-30 08:10:00,69.4,66.4,30.08,South,176,0.0,0.9,90,0.00,,,0.00,meteobridge,2013-08-30 12:10:00,
2013-08-30 08:15:00,69.6,66.9,30.08,South,176,0.0,0.9,91,0.00,,,0.00,meteobridge,2013-08-30 12:15:00,
2013-08-30 08:21:00,70.0,66.9,30.07,SW,220,0.0,0.0,90,0.00,,,0.00,meteobridge,2013-08-30 12:21:00,
2013-08-30 08:26:00,70.0,66.6,30.07,West,263,2.0,2.9,89,0.00,,,0.00,meteobridge,2013-08-30 12:26:00,
2013-08-30 08:31:00,70.2,66.7,30.07,WSW,248,0.0,0.9,89,0.00,,,0.00,meteobridge,2013-08-30 12:31:00,
2013-08-30 08:36:00,70.3,66.9,30.08,SW,235,2.9,4.9,89,0.00,,,0.00,meteobridge,2013-08-30 12:36:00,
2013-08-30 08:41:00,70.7,67.3,30.08,SW,235,0.9,0.9,89,0.00,,,0.00,meteobridge,2013-08-30 12:41:00,
2013-08-30 08:46:00,71.1,66.9,30.07,SW,235,0.0,0.0,87,0.00,,,0.00,meteobridge,2013-08-30 12:46:00,
2013-08-30 08:51:00,71.2,67.1,30.07,SW,217,0.0,4.9,87,0.00,,,0.00,meteobridge,2013-08-30 12:51:00,
2013-08-30 08:56:00,71.8,67.3,30.07,SW,217,4.0,4.0,86,0.00,,,0.00,meteobridge,2013-08-30 12:56:00,
2013-08-30 09:01:00,72.3,67.3,30.07,SE,128,4.0,4.9,84,0.00,,,0.00,meteobridge,2013-08-30 13:01:00,
2013-08-30 09:06:00,73.0,68.0,30.07,SE,128,0.0,0.0,84,0.00,,,0.00,meteobridge,2013-08-30 13:06:00,
2013-08-30 09:11:00,73.6,67.8,30.07,SW,218,0.9,4.0,82,0.00,,,0.00,meteobridge,2013-08-30 13:11:00,
2013-08-30 09:16:00,73.9,67.5,30.08,SW,215,0.9,6.0,80,0.00,,,0.00,meteobridge,2013-08-30 13:16:00,
2013-08-30 09:22:00,74.5,68.2,30.07,SSE,168,0.9,6.0,81,0.00,,,0.00,meteobridge,2013-08-30 13:22:00,
2013-08-30 09:27:00,74.7,68.0,30.07,SW,221,0.0,2.9,80,0.00,,,0.00,meteobridge,2013-08-30 13:27:00,
2013-08-30 09:32:00,75.2,68.2,30.07,SSW,200,2.0,2.9,79,0.00,,,0.00,meteobridge,2013-08-30 13:32:00,
2013-08-30 09:37:00,75.4,68.0,30.07,SSW,210,0.9,6.0,78,0.00,,,0.00,meteobridge,2013-08-30 13:37:00,
2013-08-30 09:42:00,75.6,68.5,30.07,NW,313,2.0,4.9,79,0.00,,,0.00,meteobridge,2013-08-30 13:42:00,
2013-08-30 09:47:00,75.7,68.4,30.07,SSW,204,2.9,6.0,78,0.00,,,0.00,meteobridge,2013-08-30 13:47:00,
2013-08-30 09:52:00,75.9,68.2,30.07,WNW,300,0.9,2.9,77,0.00,,,0.00,meteobridge,2013-08-30 13:52:00,
2013-08-30 09:57:00,76.3,68.5,30.07,SW,232,0.0,2.9,77,0.00,,,0.00,meteobridge,2013-08-30 13:57:00,
2013-08-30 10:02:00,76.3,68.5,30.07,SSE,152,0.0,2.0,77,0.00,,,0.00,meteobridge,2013-08-30 14:02:00,
2013-08-30 10:07:00,75.9,68.5,30.07,NNW,338,0.0,6.0,78,0.00,,,0.00,meteobridge,2013-08-30 14:07:00,
2013-08-30 10:12:00,76.3,68.9,30.06,WSW,240,2.0,2.9,78,0.00,,,0.00,meteobridge,2013-08-30 14:12:00,
2013-08-30 10:17:00,76.6,68.9,30.06,NW,320,2.0,4.0,77,0.00,,,0.00,meteobridge,2013-08-30 14:17:00,
2013-08-30 10:22:00,77.0,68.9,30.06,WSW,238,0.0,8.1,76,0.00,,,0.00,meteobridge,2013-08-30 14:22:00,
2013-08-30 10:27:00,77.4,69.6,30.06,WSW,238,0.9,0.9,77,0.00,,,0.00,meteobridge,2013-08-30 14:27:00,
2013-08-30 10:32:00,77.5,69.4,30.06,NW,314,0.9,6.9,76,0.00,,,0.00,meteobridge,2013-08-30 14:32:00,
2013-08-30 10:37:00,77.9,69.3,30.06,SSE,166,0.0,4.9,75,0.00,,,0.00,meteobridge,2013-08-30 14:37:00,
2013-08-30 10:43:00,78.3,69.6,30.06,SW,226,4.9,6.9,75,0.00,,,0.00,meteobridge,2013-08-30 14:43:00,
2013-08-30 10:48:00,78.3,69.6,30.06,SW,217,0.9,4.0,75,0.00,,,0.00,meteobridge,2013-08-30 14:48:00,
2013-08-30 10:53:00,78.4,70.2,30.06,SSW,192,0.9,2.0,76,0.00,,,0.00,meteobridge,2013-08-30 14:53:00,
2013-08-30 10:58:00,79.0,70.0,30.06,NW,321,0.9,2.9,74,0.00,,,0.00,meteobridge,2013-08-30 14:58:00,
2013-08-30 11:03:00,79.3,70.0,30.06,NW,315,0.9,4.9,73,0.00,,,0.00,meteobridge,2013-08-30 15:03:00,
2013-08-30 11:08:00,79.7,69.8,30.06,NW,325,2.9,2.9,72,0.00,,,0.00,meteobridge,2013-08-30 15:08:00,
2013-08-30 11:13:00,79.9,70.5,30.06,WNW,286,0.0,4.9,73,0.00,,,0.00,meteobridge,2013-08-30 15:13:00,
2013-08-30 11:18:00,79.9,70.5,30.06,WNW,302,0.9,2.9,73,0.00,,,0.00,meteobridge,2013-08-30 15:18:00,
2013-08-30 11:23:00,79.5,70.5,30.06,SSW,196,2.0,4.9,74,0.00,,,0.00,meteobridge,2013-08-30 15:23:00,
2013-08-30 11:28:00,79.5,70.5,30.05,WNW,287,0.0,4.9,74,0.00,,,0.00,meteobridge,2013-08-30 15:28:00,
2013-08-30 11:33:00,80.1,70.7,30.05,North,11,6.9,6.9,73,0.00,,,0.00,meteobridge,2013-08-30 15:33:00,
2013-08-30 11:38:00,80.6,70.7,30.05,NNW,341,0.0,6.9,72,0.00,,,0.00,meteobridge,2013-08-30 15:38:00,
2013-08-30 11:43:00,80.4,70.9,30.05,WNW,294,0.9,4.9,73,0.00,,,0.00,meteobridge,2013-08-30 15:43:00,
2013-08-30 11:48:00,80.8,71.2,30.04,SW,221,0.9,4.0,73,0.00,,,0.00,meteobridge,2013-08-30 15:48:00,
2013-08-30 11:53:00,81.1,70.9,30.04,NW,321,0.9,4.0,71,0.00,,,0.00,meteobridge,2013-08-30 15:53:00,
2013-08-30 11:58:00,81.9,71.6,30.04,WNW,294,2.9,2.9,71,0.00,,,0.00,meteobridge,2013-08-30 15:58:00,
2013-08-30 12:03:00,81.9,71.1,30.04,WSW,238,0.0,2.0,70,0.00,,,0.00,meteobridge,2013-08-30 16:03:00,
2013-08-30 12:08:00,81.9,71.1,30.03,WNW,286,0.9,6.0,70,0.00,,,0.00,meteobridge,2013-08-30 16:08:00,
2013-08-30 12:13:00,81.7,70.9,30.03,WSW,247,0.0,2.0,70,0.00,,,0.00,meteobridge,2013-08-30 16:13:00,
2013-08-30 12:18:00,81.3,71.1,30.03,NW,304,0.9,4.0,71,0.00,,,0.00,meteobridge,2013-08-30 16:18:00,
2013-08-30 12:23:00,81.1,70.3,30.02,SSW,205,2.9,4.0,70,0.00,,,0.00,meteobridge,2013-08-30 16:23:00,
2013-08-30 12:28:00,80.8,70.5,30.02,SSW,209,4.9,4.9,71,0.00,,,0.00,meteobridge,2013-08-30 16:28:00,
2013-08-30 12:33:00,80.4,70.9,30.02,North,0,4.0,4.9,73,0.00,,,0.00,meteobridge,2013-08-30 16:33:00,
2013-08-30 12:38:00,80.8,71.2,30.02,WSW,246,0.9,0.9,73,0.00,,,0.00,meteobridge,2013-08-30 16:38:00,
2013-08-30 12:43:00,81.1,70.9,30.02,NW,306,0.0,4.0,71,0.00,,,0.00,meteobridge,2013-08-30 16:43:00,
2013-08-30 12:48:00,81.0,71.1,30.02,SW,229,4.0,6.9,72,0.00,,,0.00,meteobridge,2013-08-30 16:48:00,
2013-08-30 12:54:00,81.0,70.7,30.02,SSE,159,0.0,6.0,71,0.00,,,0.00,meteobridge,2013-08-30 16:54:00,
2013-08-30 12:59:00,81.7,71.8,30.02,SW,234,2.0,10.1,72,0.00,,,0.00,meteobridge,2013-08-30 16:59:00,
2013-08-30 13:04:00,81.9,71.1,30.01,WNW,293,2.0,2.0,70,0.00,,,0.00,meteobridge,2013-08-30 17:04:00,
2013-08-30 13:09:00,82.0,71.2,30.01,WNW,302,6.0,6.0,70,0.00,,,0.00,meteobridge,2013-08-30 17:09:00,
2013-08-30 13:14:00,82.2,71.1,30.01,SW,221,2.9,4.9,69,0.00,,,0.00,meteobridge,2013-08-30 17:14:00,
2013-08-30 13:19:00,82.0,71.2,30.01,West,265,0.0,4.9,70,0.00,,,0.00,meteobridge,2013-08-30 17:19:00,
2013-08-30 13:24:00,82.6,71.8,30.01,North,11,2.0,4.0,70,0.00,,,0.00,meteobridge,2013-08-30 17:24:00,
2013-08-30 13:29:00,82.8,71.1,30.01,WSW,249,0.9,6.9,68,0.00,,,0.00,meteobridge,2013-08-30 17:29:00,
2013-08-30 13:34:00,83.1,71.1,30.00,NW,315,2.9,6.0,67,0.00,,,0.00,meteobridge,2013-08-30 17:34:00,
2013-08-30 13:39:00,83.5,71.4,30.00,SSW,212,0.0,6.9,67,0.00,,,0.00,meteobridge,2013-08-30 17:39:00,
2013-08-30 13:44:00,83.5,71.8,30.00,SW,221,2.0,4.0,68,0.00,,,0.00,meteobridge,2013-08-30 17:44:00,
2013-08-30 13:49:00,83.8,71.2,30.00,WNW,288,2.9,2.9,66,0.00,,,0.00,meteobridge,2013-08-30 17:49:00,
2013-08-30 13:54:00,84.6,72.0,30.00,SSW,207,2.9,4.9,66,0.00,,,0.00,meteobridge,2013-08-30 17:54:00,
2013-08-30 13:59:00,84.7,71.2,30.00,WNW,286,0.0,2.9,64,0.00,,,0.00,meteobridge,2013-08-30 17:59:00,
2013-08-30 14:04:00,84.9,70.9,30.00,NNW,344,0.0,2.9,63,0.00,,,0.00,meteobridge,2013-08-30 18:04:00,
2013-08-30 14:09:00,84.9,71.4,29.99,West,264,4.0,4.0,64,0.00,,,0.00,meteobridge,2013-08-30 18:09:00,
2013-08-30 14:14:00,84.6,71.1,29.99,SSW,210,2.9,6.0,64,0.00,,,0.00,meteobridge,2013-08-30 18:14:00,
2013-08-30 14:19:00,84.4,70.9,29.99,SSW,207,0.0,2.0,64,0.00,,,0.00,meteobridge,2013-08-30 18:19:00,
2013-08-30 14:24:00,84.6,71.4,29.99,South,178,2.0,2.0,65,0.00,,,0.00,meteobridge,2013-08-30 18:24:00,
2013-08-30 14:29:00,84.9,71.4,29.99,NNW,329,0.0,4.0,64,0.00,,,0.00,meteobridge,2013-08-30 18:29:00,
2013-08-30 14:35:00,84.9,70.9,29.98,WNW,298,0.9,4.0,63,0.00,,,0.00,meteobridge,2013-08-30 18:35:00,
2013-08-30 14:40:00,85.3,70.7,29.98,West,267,0.0,0.9,62,0.00,,,0.00,meteobridge,2013-08-30 18:40:00,
2013-08-30 14:45:00,84.9,71.4,29.98,WSW,256,2.0,2.9,64,0.00,,,0.00,meteobridge,2013-08-30 18:45:00,
2013-08-30 14:50:00,85.3,71.2,29.98,SSW,210,4.9,4.9,63,0.00,,,0.00,meteobridge,2013-08-30 18:50:00,
2013-08-30 14:55:00,84.7,70.7,29.98,SW,225,0.9,8.1,63,0.00,,,0.00,meteobridge,2013-08-30 18:55:00,
2013-08-30 15:00:00,84.7,70.3,29.98,NW,317,2.9,6.9,62,0.00,,,0.00,meteobridge,2013-08-30 19:00:00,
2013-08-30 15:05:00,85.1,70.2,29.98,SW,225,4.0,6.0,61,0.00,,,0.00,meteobridge,2013-08-30 19:05:00,
2013-08-30 15:10:00,84.7,70.3,29.97,East,80,2.0,4.9,62,0.00,,,0.00,meteobridge,2013-08-30 19:10:00,
2013-08-30 15:15:00,85.1,71.1,29.97,WNW,302,0.9,4.0,63,0.00,,,0.00,meteobridge,2013-08-30 19:15:00,
2013-08-30 15:20:00,85.6,71.1,29.97,SSW,196,2.0,4.9,62,0.00,,,0.00,meteobridge,2013-08-30 19:20:00,
2013-08-30 15:25:00,85.8,71.2,29.97,SSW,196,2.9,4.9,62,0.00,,,0.00,meteobridge,2013-08-30 19:25:00,
2013-08-30 15:31:00,86.0,71.1,29.97,South,186,0.9,2.9,61,0.00,,,0.00,meteobridge,2013-08-30 19:31:00,
2013-08-30 15:36:00,86.4,70.9,29.97,WNW,297,2.0,2.9,60,0.00,,,0.00,meteobridge,2013-08-30 19:36:00,
2013-08-30 15:41:00,86.5,71.4,29.97,NW,315,0.0,4.9,61,0.00,,,0.00,meteobridge,2013-08-30 19:41:00,
2013-08-30 15:46:00,85.6,70.2,29.96,WSW,239,2.0,8.1,60,0.00,,,0.00,meteobridge,2013-08-30 19:46:00,
2013-08-30 15:51:00,84.9,70.9,29.96,SSW,194,0.9,6.0,63,0.00,,,0.00,meteobridge,2013-08-30 19:51:00,
2013-08-30 15:56:00,84.9,71.8,29.96,SSW,204,0.0,2.9,65,0.00,,,0.00,meteobridge,2013-08-30 19:56:00,
2013-08-30 16:01:00,85.3,71.8,29.96,SW,227,0.9,4.0,64,0.00,,,0.00,meteobridge,2013-08-30 20:01:00,
2013-08-30 16:06:00,85.3,71.2,29.96,SW,223,0.0,6.0,63,0.00,,,0.00,meteobridge,2013-08-30 20:06:00,
2013-08-30 16:11:00,85.1,71.6,29.96,West,279,2.9,4.0,64,0.00,,,0.00,meteobridge,2013-08-30 20:11:00,
2013-08-30 16:17:00,85.3,71.8,29.96,SSW,212,4.9,6.9,64,0.00,,,0.00,meteobridge,2013-08-30 20:17:00,
2013-08-30 16:22:00,84.9,71.8,29.96,WSW,238,6.0,6.0,65,0.00,,,0.00,meteobridge,2013-08-30 20:22:00,
2013-08-30 16:27:00,84.9,71.8,29.96,West,270,2.0,4.9,65,0.00,,,0.00,meteobridge,2013-08-30 20:27:00,
2013-08-30 16:32:00,84.9,71.8,29.96,NW,322,0.0,4.0,65,0.00,,,0.00,meteobridge,2013-08-30 20:32:00,
2013-08-30 16:37:00,84.6,71.4,29.96,West,262,0.0,2.0,65,0.00,,,0.00,meteobridge,2013-08-30 20:37:00,
2013-08-30 16:42:00,84.7,72.1,29.96,WSW,255,0.0,4.0,66,0.00,,,0.00,meteobridge,2013-08-30 20:42:00,
2013-08-30 16:47:00,84.4,71.8,29.96,WSW,238,0.0,4.0,66,0.00,,,0.00,meteobridge,2013-08-30 20:47:00,
2013-08-30 16:52:00,83.8,71.2,29.96,North,5,4.0,6.9,66,0.00,,,0.00,meteobridge,2013-08-30 20:52:00,
2013-08-30 16:57:00,83.5,71.4,29.96,West,261,2.0,6.0,67,0.00,,,0.00,meteobridge,2013-08-30 20:57:00,
2013-08-30 17:02:00,83.1,71.4,29.96,South,188,2.9,6.0,68,0.00,,,0.00,meteobridge,2013-08-30 21:02:00,
2013-08-30 17:07:00,82.8,72.0,29.96,WSW,242,0.9,4.0,70,0.00,,,0.00,meteobridge,2013-08-30 21:07:00,
2013-08-30 17:12:00,82.8,71.6,29.96,West,267,0.9,2.9,69,0.00,,,0.00,meteobridge,2013-08-30 21:12:00,
2013-08-30 17:17:00,82.8,72.0,29.96,SSE,154,0.0,6.9,70,0.00,,,0.00,meteobridge,2013-08-30 21:17:00,
2013-08-30 17:22:00,82.6,71.4,29.96,SW,234,2.9,6.9,69,0.00,,,0.00,meteobridge,2013-08-30 21:22:00,
2013-08-30 17:27:00,82.4,71.6,29.96,SW,215,2.0,4.0,70,0.00,,,0.00,meteobridge,2013-08-30 21:27:00,
2013-08-30 17:33:00,82.0,71.2,29.96,South,184,6.9,6.9,70,0.00,,,0.00,meteobridge,2013-08-30 21:33:00,
2013-08-30 17:38:00,81.7,71.4,29.96,WSW,241,0.0,2.9,71,0.00,,,0.00,meteobridge,2013-08-30 21:38:00,
2013-08-30 17:43:00,81.3,71.1,29.95,West,265,2.0,4.0,71,0.00,,,0.00,meteobridge,2013-08-30 21:43:00,
2013-08-30 17:48:00,81.5,71.6,29.95,SW,216,6.9,8.1,72,0.00,,,0.00,meteobridge,2013-08-30 21:48:00,
2013-08-30 17:53:00,81.3,71.4,29.95,SSW,199,2.0,2.0,72,0.00,,,0.00,meteobridge,2013-08-30 21:53:00,
2013-08-30 17:58:00,81.1,71.2,29.95,SSW,196,2.0,4.9,72,0.00,,,0.00,meteobridge,2013-08-30 21:58:00,
2013-08-30 18:03:00,81.0,71.4,29.95,South,173,0.0,4.9,73,0.00,,,0.00,meteobridge,2013-08-30 22:03:00,
2013-08-30 18:08:00,80.8,71.2,29.95,SW,230,2.0,4.9,73,0.00,,,0.00,meteobridge,2013-08-30 22:08:00,
2013-08-30 18:13:00,80.6,71.6,29.95,SSE,153,0.0,2.0,74,0.00,,,0.00,meteobridge,2013-08-30 22:13:00,
2013-08-30 18:18:00,80.4,71.4,29.94,WNW,294,0.9,4.0,74,0.00,,,0.00,meteobridge,2013-08-30 22:18:00,
2013-08-30 18:23:00,80.2,71.2,29.94,SW,230,2.0,6.0,74,0.00,,,0.00,meteobridge,2013-08-30 22:23:00,
2013-08-30 18:29:00,80.1,71.8,29.94,WSW,255,0.0,0.9,76,0.00,,,0.00,meteobridge,2013-08-30 22:29:00,
2013-08-30 18:34:00,79.9,71.6,29.94,WSW,246,0.9,2.0,76,0.00,,,0.00,meteobridge,2013-08-30 22:34:00,
2013-08-30 18:39:00,79.7,71.4,29.93,SW,231,6.9,8.1,76,0.00,,,0.00,meteobridge,2013-08-30 22:39:00,
2013-08-30 18:44:00,79.5,71.2,29.93,SW,228,0.0,2.9,76,0.00,,,0.00,meteobridge,2013-08-30 22:44:00,
2013-08-30 18:50:00,79.5,71.2,29.93,WSW,242,2.9,6.0,76,0.00,,,0.00,meteobridge,2013-08-30 22:50:00,
2013-08-30 18:55:00,79.3,71.4,29.93,South,186,0.0,4.9,77,0.00,,,0.00,meteobridge,2013-08-30 22:55:00,
2013-08-30 19:00:00,79.2,71.2,29.93,South,182,0.0,0.9,77,0.00,,,0.00,meteobridge,2013-08-30 23:00:00,
2013-08-30 19:05:00,79.2,71.2,29.93,SE,134,0.9,4.9,77,0.00,,,0.00,meteobridge,2013-08-30 23:05:00,
2013-08-30 19:10:00,78.8,71.1,29.93,SW,234,2.9,4.0,77,0.00,,,0.00,meteobridge,2013-08-30 23:10:00,
2013-08-30 19:15:00,78.6,71.2,29.93,SSW,200,0.9,4.0,78,0.00,,,0.00,meteobridge,2013-08-30 23:15:00,
2013-08-30 19:20:00,78.3,70.9,29.93,SW,219,2.0,6.9,78,0.00,,,0.00,meteobridge,2013-08-30 23:20:00,
2013-08-30 19:25:00,78.1,71.1,29.93,WSW,238,2.0,2.9,79,0.00,,,0.00,meteobridge,2013-08-30 23:25:00,
2013-08-30 19:30:00,77.9,70.9,29.93,SW,226,0.0,2.0,79,0.00,,,0.00,meteobridge,2013-08-30 23:30:00,
2013-08-30 19:35:00,77.5,70.9,29.93,SW,229,0.9,4.0,80,0.00,,,0.00,meteobridge,2013-08-30 23:35:00,
2013-08-30 19:40:00,77.4,70.7,29.93,SW,229,0.0,0.9,80,0.00,,,0.00,meteobridge,2013-08-30 23:40:00,
2013-08-30 19:46:00,77.2,70.9,29.93,SW,223,0.0,0.0,81,0.00,,,0.00,meteobridge,2013-08-30 23:46:00,
2013-08-30 19:51:00,76.8,70.5,29.93,SW,222,2.0,6.9,81,0.00,,,0.00,meteobridge,2013-08-30 23:51:00,
2013-08-30 19:56:00,76.6,70.7,29.93,SW,231,0.9,4.9,82,0.00,,,0.00,meteobridge,2013-08-30 23:56:00,
2013-08-30 20:01:00,76.6,70.7,29.93,SW,224,0.0,2.0,82,0.00,,,0.00,meteobridge,2013-08-31 00:01:00,
2013-08-30 20:06:00,76.5,70.5,29.93,SSW,203,2.0,4.9,82,0.00,,,0.00,meteobridge,2013-08-31 00:06:00,
2013-08-30 20:11:00,76.3,70.7,29.93,SW,229,0.0,0.0,83,0.00,,,0.00,meteobridge,2013-08-31 00:11:00,
2013-08-30 20:16:00,75.9,70.3,29.93,SSW,200,0.9,0.9,83,0.00,,,0.00,meteobridge,2013-08-31 00:16:00,
2013-08-30 20:21:00,75.7,70.2,29.93,West,259,0.0,0.9,83,0.00,,,0.00,meteobridge,2013-08-31 00:21:00,
2013-08-30 20:26:00,75.6,70.3,29.93,WSW,253,0.9,2.9,84,0.00,,,0.00,meteobridge,2013-08-31 00:26:00,
2013-08-30 20:31:00,75.4,70.2,29.93,WSW,253,0.0,0.9,84,0.00,,,0.00,meteobridge,2013-08-31 00:31:00,
2013-08-30 20:36:00,75.2,70.3,29.93,SSE,157,0.0,4.9,85,0.00,,,0.00,meteobridge,2013-08-31 00:36:00,
2013-08-30 20:42:00,75.0,70.2,29.94,SE,144,0.0,2.0,85,0.00,,,0.00,meteobridge,2013-08-31 00:42:00,
2013-08-30 20:47:00,75.0,70.2,29.94,SW,224,0.0,2.9,85,0.00,,,0.00,meteobridge,2013-08-31 00:47:00,
2013-08-30 20:52:00,74.8,70.3,29.94,WSW,243,6.0,6.0,86,0.00,,,0.00,meteobridge,2013-08-31 00:52:00,
2013-08-30 20:57:00,74.8,70.3,29.94,SW,236,2.0,2.0,86,0.00,,,0.00,meteobridge,2013-08-31 00:57:00,
2013-08-30 21:02:00,74.8,70.3,29.94,SSW,213,0.0,0.9,86,0.00,,,0.00,meteobridge,2013-08-31 01:02:00,
2013-08-30 21:07:00,74.7,70.2,29.94,SW,216,2.9,2.9,86,0.00,,,0.00,meteobridge,2013-08-31 01:07:00,
2013-08-30 21:12:00,74.7,70.2,29.94,SSW,212,0.0,0.0,86,0.00,,,0.00,meteobridge,2013-08-31 01:12:00,
2013-08-30 21:17:00,74.5,70.0,29.94,SSW,205,0.0,4.0,86,0.00,,,0.00,meteobridge,2013-08-31 01:17:00,
2013-08-30 21:23:00,74.5,70.0,29.94,SSW,213,0.0,4.0,86,0.00,,,0.00,meteobridge,2013-08-31 01:23:00,
2013-08-30 21:28:00,74.5,70.3,29.94,SW,232,0.9,0.9,87,0.00,,,0.00,meteobridge,2013-08-31 01:28:00,
2013-08-30 21:33:00,74.3,70.2,29.94,SW,231,2.0,6.0,87,0.00,,,0.00,meteobridge,2013-08-31 01:33:00,
2013-08-30 21:38:00,74.1,70.0,29.94,SSW,213,0.9,2.9,87,0.00,,,0.00,meteobridge,2013-08-31 01:38:00,
2013-08-30 21:43:00,74.1,70.0,29.95,SW,226,0.0,4.9,87,0.00,,,0.00,meteobridge,2013-08-31 01:43:00,
2013-08-30 21:48:00,74.1,70.3,29.95,SSW,213,0.0,2.0,88,0.00,,,0.00,meteobridge,2013-08-31 01:48:00,
2013-08-30 21:53:00,73.9,70.2,29.95,WSW,253,2.0,4.9,88,0.00,,,0.00,meteobridge,2013-08-31 01:53:00,
2013-08-30 21:58:00,73.9,70.2,29.95,SW,219,2.9,4.0,88,0.00,,,0.00,meteobridge,2013-08-31 01:58:00,
2013-08-30 22:03:00,73.8,70.0,29.95,SW,215,2.0,2.0,88,0.00,,,0.00,meteobridge,2013-08-31 02:03:00,
2013-08-30 22:09:00,73.8,70.0,29.95,South,177,0.9,4.0,88,0.00,,,0.00,meteobridge,2013-08-31 02:09:00,
2013-08-30 22:14:00,73.8,70.0,29.95,SSW,209,0.0,2.9,88,0.00,,,0.00,meteobridge,2013-08-31 02:14:00,
2013-08-30 22:19:00,73.6,69.8,29.95,SSE,165,2.0,4.9,88,0.00,,,0.00,meteobridge,2013-08-31 02:19:00,
2013-08-30 22:24:00,73.6,69.8,29.95,SE,142,0.0,6.0,88,0.00,,,0.00,meteobridge,2013-08-31 02:24:00,
2013-08-30 22:29:00,73.6,70.2,29.95,SSW,211,2.0,6.0,89,0.00,,,0.00,meteobridge,2013-08-31 02:29:00,
2013-08-30 22:34:00,73.2,69.8,29.95,SSW,212,0.9,2.0,89,0.00,,,0.00,meteobridge,2013-08-31 02:34:00,
2013-08-30 22:39:00,73.2,69.8,29.95,SW,216,0.0,2.9,89,0.00,,,0.00,meteobridge,2013-08-31 02:39:00,
2013-08-30 22:44:00,73.0,69.6,29.96,SW,225,0.9,2.9,89,0.00,,,0.00,meteobridge,2013-08-31 02:44:00,
2013-08-30 22:49:00,73.0,69.6,29.96,WSW,253,2.9,2.9,89,0.00,,,0.00,meteobridge,2013-08-31 02:49:00,
2013-08-30 22:54:00,72.9,69.4,29.96,WSW,237,2.0,2.9,89,0.00,,,0.00,meteobridge,2013-08-31 02:54:00,
2013-08-30 22:59:00,72.9,69.8,29.96,SSW,206,0.9,6.9,90,0.00,,,0.00,meteobridge,2013-08-31 02:59:00,
2013-08-30 23:04:00,72.7,69.6,29.96,NW,304,0.9,2.0,90,0.00,,,0.00,meteobridge,2013-08-31 03:04:00,
2013-08-30 23:09:00,72.7,69.6,29.96,ESE,109,0.0,2.0,90,0.00,,,0.00,meteobridge,2013-08-31 03:09:00,
2013-08-30 23:14:00,72.5,69.4,29.96,NW,306,0.9,0.9,90,0.00,,,0.00,meteobridge,2013-08-31 03:14:00,
2013-08-30 23:20:00,72.3,69.3,29.96,South,180,0.0,0.0,90,0.00,,,0.00,meteobridge,2013-08-31 03:20:00,
2013-08-30 23:25:00,72.3,69.3,29.96,SW,217,2.0,4.0,90,0.00,,,0.00,meteobridge,2013-08-31 03:25:00,
2013-08-30 23:30:00,72.3,69.3,29.96,WSW,246,0.0,4.9,90,0.00,,,0.00,meteobridge,2013-08-31 03:30:00,
2013-08-30 23:35:00,72.1,69.1,29.96,SW,223,2.0,2.9,90,0.00,,,0.00,meteobridge,2013-08-31 03:35:00,
2013-08-30 23:40:00,72.1,69.1,29.96,SSW,197,4.0,4.9,90,0.00,,,0.00,meteobridge,2013-08-31 03:40:00,
2013-08-30 23:45:00,72.1,69.1,29.96,WSW,258,2.9,4.9,90,0.00,,,0.00,meteobridge,2013-08-31 03:45:00,
2013-08-30 23:50:00,72.1,69.1,29.95,WSW,251,0.9,2.9,90,0.00,,,0.00,meteobridge,2013-08-31 03:50:00,
2013-08-30 23:55:00,72.1,69.1,29.95,West,259,0.0,4.0,90,0.00,,,0.00,meteobridge,2013-08-31 03:55:00,